Location: Lafig�re
(44.4503°N, 4.0357°E)
Time: 15:15:26
(UTC+00:00)

BlueWalker 3 - Pass Details

Date: 04 December 2022
Orbit: 499 x 517 km, 53.2° (Epoch: 01 February)

Event Time Altitude Azimuth Distance (km) Brightness Sun altitude
Rises 18:41:26 0° 304° (NW) 2,625 6.3 -27.2°
Reaches altitude 10° 18:43:45 10° 313° (NW) 1,733 5.1 -27.6°
Enters shadow 18:45:02 19° 322° (NW) 1,274 4.3 -27.8°
